Regional Weather Roundup
Issued by NWS

Home | Current Version | Previous Version | Text Only | Print | Product List | Glossary On
Versions: 1 2 3 4 5 6 7 8 9 10 11 12 13 14 15 16 17 18 19 20 21 22 23 24 25 26 27 28 29 30 31 32 33 34 35 36 37 38 39 40 41 42 43 44 45 46 47 48 49 50
000
ASUS45 KBOU 270507
RWRCO

WEATHER ROUNDUP FOR COLORADO
NATIONAL WEATHER SERVICE DENVER/BOULDER CO
1000 PM MST MON JAN 26 2015

NOTE: "FAIR" INDICATES FEW OR NO CLOUDS BELOW 12000 FEET WITH NO
SIGNIFICANT WEATHER AND/OR OBSTRUCTIONS TO VISIBILITY.

COZ001>005-013-030-031-270600-
...NORTHWEST COLORADO...

CITY           SKY/WX    TMP DP  RH WIND       PRES   REMARKS
CRAIG          CLEAR     17  15  92 CALM      30.33S
HAYDEN         CLEAR     34  21  60 E13       30.32F WCI  25
MEEKER         CLEAR     25  19  78 SE5       30.33R WCI  19
MOUNT WERNER   NOT AVBL
STEAMBOAT SPGS CLEAR     26  23  88 CALM      30.35S
WALDEN         PTCLDY    21  18  86 S6        30.39R WCI  14
$$

COZ006>008-011-270600-
...WEST CENTRAL VALLEYS...

CITY           SKY/WX    TMP DP  RH WIND       PRES   REMARKS
GRAND JUNCTION CLEAR     31  25  78 E5        30.31R WCI  26
MONTROSE       CLEAR     32  23  69 S7        30.35R WCI  26
EAGLE          CLEAR     27  25  93 VRB5      30.42R WCI  21
RIFLE          PTCLDY    34  25  69 W5        30.33R WCI  30
DELTA          CLEAR     36  26  65 MISG      30.34R
NUCLA          CLEAR     36  27  69 E12       30.37S
$$

COZ017>023-064>068-270600-
...SOUTHWEST COLORADO...

CITY           SKY/WX    TMP DP  RH WIND       PRES   REMARKS
DURANGO        PTCLDY    34  25  69 CALM      30.39R
CORTEZ         CLEAR     29  22  75 E3        30.34S
PAGOSA SPRINGS PTCLDY    34  23  63 CALM      30.43F
TELLURIDE      PTCLDY    40  19  43 CALM      30.45S
WOLF CREEK PAS NOT AVBL
$$

COZ009-010-012-014-032>034-037-058>063-270600-
...CENTRAL COLORADO...

CITY           SKY/WX    TMP DP  RH WIND       PRES   REMARKS
ASPEN          CLEAR     28  18  66 S7        30.37F WCI  21
BUENA VISTA    CLEAR     31  22  68 NW7       30.41F WCI  24
COPPER MTN     PTCLDY    39   9  28 S15G23    30.55R
BERTHOUD PASS  FAIR      32  28  86 SW3       30.57F
COTTONWOOD PAS CLEAR     45   9  23 W8        30.47S
GUNNISON       PTCLDY     9   9 100 NE5       30.49S WCI   0
KREMMLING      PTCLDY    14  12  92 CALM      30.46R
LEADVILLE      PTCLDY    29  12  49 CALM      30.46S
MONARCH PASS   CLEAR     34  10  37 SW16      30.66S WCI  23
SALIDA         CLEAR     38  20  47 NW5       30.47R
SUNLIGHT       PTCLDY    37  18  44 CALM      30.50S
WILKERSON PASS PTCLDY    36  14  41 SW8       30.55S
$$

COZ069>075-270600-
...SAN LUIS VALLEY/SANGRE DE CRISTO MOUNTAINS...

CITY           SKY/WX    TMP DP  RH WIND       PRES   REMARKS
ALAMOSA        MOCLDY    19  15  84 W5        30.42S WCI  12
LA VETA PASS   NOT AVBL
SAGUACHE       PTCLDY    25  19  80 NW9       30.43F WCI  15
$$

COZ035-036-038>040-270600-
...NORTHERN COLORADO FRONT RANGE...

CITY           SKY/WX    TMP DP  RH WIND       PRES   REMARKS
DENVER INTL AP CLEAR     51  26  37 SW17      30.20F
DMNS CITY PARK   N/A     49  21  33 SE3G10    30.21S
AURORA         CLEAR     46  26  45 S12       30.23S
FRONT RANGE AP NOT AVBL
ERIE MUNI ARPT CLEAR     35  25  68 SW5       30.19F WCI  31
BOULDER MUN AP CLEAR     52  21  30 CALM      30.20S
CENTENNIAL     CLEAR     44  26  49 SE8       30.24S
BROOMFIELD     CLEAR     48  21  34 CALM      30.22F
FORT COLLINS   CLEAR     43  23  45 N10       30.20F
LONGMONT       CLEAR     37  25  61 CALM      30.21S
$$

COZ041-046-047-076>085-087-088-270600-
...PIKES PEAK/PALMER DIVIDE AND SOUTHERN FOOTHILLS...

CITY           SKY/WX    TMP DP  RH WIND       PRES   REMARKS
COLO. SPRINGS  CLEAR     37  26  64 N7        30.29F
A. F. ACADEMY  CLEAR     32  24  73 N10       30.30S WCI  24
ELLICOTT       CLEAR    N/A N/A N/A CALM      30.28S
FALCON         CLEAR     36  24  61 W6        30.32S
FORT CARSON    CLEAR     40  26  57 N10       30.26F
LIMON          CLEAR     28  24  85 N7        30.24S WCI  21
MONUMENT HILL  CLEAR     37  27  65 S9        30.30S
TRINIDAD       CLEAR     43  27  53 SW20      30.29S
$$

COZ042>045-048>051-090-091-270600-
...NORTHEAST COLORADO...

CITY           SKY/WX    TMP DP  RH WIND       PRES   REMARKS
GREELEY ARPT   PTCLDY    30  21  69 NW5       30.17S WCI  25
AKRON          PTCLDY    47  27  45 SW13      30.16F
BURLINGTON     PTCLDY    40  30  67 SW9       30.17F
WRAY           CLEAR     35  30  81 MISG      30.14S
STERLING       PTCLDY    36  32  87 S6        30.14F
HOLYOKE        CLEAR     37  32  81 W8        30.12F
FORT MORGAN    PTCLDY    40  27  60 W8        30.17S
$$

COZ086-089-092>099-270600-
...SOUTHEAST COLORADO...

CITY           SKY/WX    TMP DP  RH WIND       PRES   REMARKS
PUEBLO         CLEAR     35  29  78 W8        30.23S WCI  29
LA JUNTA       PTCLDY    47  33  58 W16       30.20S
LAMAR          CLEAR     36  32  85 W9        30.17F
SPRINGFIELD      N/A     38  30  73 W5        30.22F
$$



USA.gov is the U.S. government's official web portal to all federal, state and local government web resources and services.